Vorticity
2 2 4 3 -1 7 7 8 2 16 -4 6 6 -0 26 12 7 8 8 9 8 8 7 2 10 14 3 7 5 12 9 13 6 12 8 7 8 6 5 5 5 5 5 6
3 5 3 2 7 7 6 11 -1 5 13 20 6 8 14 8 6 10 9 8 6 7 6 7 6 11 4 6 7 14 3 12 11 6 5 6 4 4 3 3 4 4 6 7
2 4 5 5 4 6 8 2 12 19 -7 14 13 7 9 1 3 19 9 9 11 7 7 10 7 9 6 8 6 9 8 8 7 6 5 5 5 2 2 3 3 4 4 7
1 2 5 2 7 9 12 6 0 7 20 6 21 4 8 -1 13 -2 10 9 7 8 9 6 6 5 6 8 7 9 13 8 7 6 4 3 1 2 3 5 5 5 5 6
5 5 1 6 10 9 5 3 5 15 5 8 10 1 5 2 7 4 13 6 7 9 7 6 7 9 9 8 6 11 10 5 6 6 5 3 3 4 5 6 6 6 6 6
8 7 2 6 15 5 7 9 -1 18 3 10 23 9 4 1 8 16 5 6 6 6 7 7 9 -1 3 6 7 9 10 9 10 6 5 5 6 7 9 8 8 7 7 6
11 11 17 9 6 6 -1 0 19 12 34 29 17 11 9 -1 3 -10 6 7 5 7 5 7 2 3 8 13 9 8 9 11 9 8 9 8 5 7 8 8 7 6 7 6
13 8 10 6 10 14 15 31 15 27 3 2 8 5 -2 2 29 3 4 5 6 6 6 4 4 5 12 11 8 9 10 10 10 8 4 7 12 11 9 6 6 8 7 4
15 15 21 30 24 17 19 21 35 2 19 9 8 10 5 11 9 5 3 5 4 6 6 6 1 16 11 9 7 9 9 7 7 10 12 11 7 7 7 6 8 7 4 6
17 23 16 -1 -11 13 21 3 18 7 4 -4 -3 -3 15 12 -3 -1 9 4 5 5 5 8 7 12 9 9 7 8 8 9 12 12 6 7 6 7 6 6 7 5 5 5
15 17 -1 10 21 31 23 16 2 8 13 10 11 10 -20 -2 15 -3 7 6 5 6 9 8 11 10 10 11 8 8 8 11 5 3 6 4 7 5 7 6 6 6 5 6
17 7 13 13 22 12 12 10 8 5 5 9 1 5 -2 1 -5 10 3 4 5 8 10 10 9 8 8 10 7 7 6 6 6 4 6 6 7 7 4 4 5 4 6 6
8 10 27 -18 5 14 3 9 9 3 7 0 3 18 4 8 7 4 3 6 9 11 11 8 10 9 10 8 5 6 5 5 6 6 7 7 6 6 4 4 4 4 6 7
14 12 6 22 -8 13 6 10 -3 14 16 15 9 3 -2 13 9 10 8 14 8 12 6 10 12 9 8 5 5 6 5 6 6 5 6 5 5 7 7 6 6 4 6 8
13 17 18 2 -24 -15 -7 4 14 11 -2 8 15 8 12 -0 -2 -10 8 7 6 5 8 11 7 6 5 3 4 5 6 7 3 6 2 6 5 5 7 7 6 6 5 7
7 10 14 2 -9 8 13 4 34 -7 5 8 8 5 4 3 1 6 10 7 7 10 8 9 7 7 6 5 5 6 5 5 5 4 5 7 5 6 7 6 6 7 7 7
12 11 15 -4 11 7 8 -15 2 9 10 6 7 4 6 9 10 10 12 10 6 10 8 8 6 6 8 5 8 7 7 6 8 7 7 7 6 7 6 7 7 7 7 8
9 12 5 6 8 10 13 20 12 10 7 9 12 9 14 13 10 12 11 6 11 9 6 6 3 6 6 6 8 5 6 7 6 7 7 6 8 7 8 8 7 6 8 6
10 18 13 12 8 7 8 10 11 8 10 10 13 11 11 10 11 9 8 10 6 5 6 6 3 6 8 8 8 7 8 7 7 6 6 8 8 9 9 7 7 7 7 6
6 4 5 9 14 16 15 14 10 13 9 8 6 5 7 6 5 8 5 5 8 6 6 6 7 7 6 7 8 7 6 6 7 7 7 7 10 8 6 8 7 8 5 10
17 9 19 11 9 5 -5 -8 4 8 11 9 7 6 6 7 7 8 7 7 7 6 9 9 8 9 7 7 8 6 4 5 5 8 7 8 9 7 8 9 8 5 6 14
4 8 2 6 3 7 11 9 11 10 9 7 7 9 6 6 8 7 8 9 9 9 8 7 8 5 8 7 4 5 4 3 7 10 8 7 8 8 9 7 6 5 5 19
6 13 13 1 1 0 7 9 11 8 7 7 6 8 8 7 7 10 9 8 8 10 11 9 7 5 4 5 3 2 3 7 14 7 7 7 9 12 8 7 4 10 6 21
6 7 12 -0 6 8 6 7 7 4 7 9 10 8 7 9 9 8 8 9 10 9 8 7 6 3 6 4 3 9 11 9 8 8 7 8 9 7 8 8 1 10 12 18
4 6 11 8 11 12 9 7 6 7 6 6 7 9 9 8 8 9 9 8 8 6 5 3 3 4 4 6 4 13 11 9 10 8 12 9 7 7 11 6 3 8 14 16
20 7 -4 10 7 6 3 1 -1 3 9 8 7 6 6 6 7 8 8 6 3 3 5 4 4 3 5 10 7 7 14 12 12 20 8 3 7 12 8 3 8 4 17 14
Height
5872 5876 5876 5874 5871 5877 5878 5876 5877 5876 5864 5870 5867 5854 5862 5860 5859 5857 5855 5853 5851 5849 5847 5846 5846 5844 5844 5842 5840 5837 5836 5833 5832 5831 5829 5827 5826 5825 5824 5822 5819 5816 5813 5809
5865 5867 5868 5865 5868 5868 5869 5870 5871 5867 5861 5867 5862 5851 5857 5855 5854 5853 5852 5850 5848 5846 5844 5844 5843 5843 5842 5839 5839 5836 5834 5831 5829 5827 5827 5825 5825 5823 5821 5819 5816 5812 5808 5804
5855 5863 5858 5857 5862 5862 5861 5862 5862 5864 5853 5860 5858 5850 5845 5851 5849 5848 5847 5847 5846 5844 5843 5842 5841 5840 5839 5837 5835 5832 5831 5828 5826 5825 5824 5822 5821 5819 5817 5814 5811 5807 5803 5798
5850 5847 5853 5847 5852 5854 5854 5853 5853 5857 5852 5853 5851 5850 5836 5846 5845 5844 5843 5843 5842 5842 5841 5840 5839 5836 5835 5833 5831 5829 5827 5825 5823 5821 5821 5819 5818 5815 5812 5809 5806 5801 5796 5792
5841 5839 5841 5839 5845 5846 5846 5846 5847 5847 5846 5846 5847 5846 5844 5833 5842 5840 5840 5839 5839 5838 5838 5836 5836 5833 5831 5829 5826 5824 5823 5821 5819 5817 5816 5814 5812 5809 5805 5802 5799 5795 5790 5785
5828 5831 5830 5829 5836 5837 5838 5838 5840 5839 5839 5837 5840 5841 5831 5832 5834 5837 5834 5836 5836 5835 5834 5833 5832 5830 5828 5824 5822 5820 5818 5816 5815 5813 5812 5809 5806 5803 5800 5797 5794 5791 5787 5782
5820 5821 5823 5822 5823 5828 5828 5832 5832 5831 5832 5835 5835 5837 5831 5829 5829 5828 5831 5830 5829 5830 5829 5829 5828 5826 5823 5820 5818 5816 5814 5811 5810 5808 5806 5803 5800 5797 5793 5791 5786 5782 5779 5775
5808 5810 5813 5814 5814 5820 5817 5822 5825 5827 5829 5829 5828 5829 5822 5826 5830 5824 5826 5826 5825 5824 5825 5824 5823 5821 5817 5816 5813 5811 5809 5807 5804 5803 5801 5798 5795 5791 5788 5784 5781 5777 5772 5767
5800 5801 5804 5804 5802 5810 5811 5813 5821 5821 5822 5823 5823 5823 5822 5821 5822 5822 5821 5821 5821 5820 5819 5819 5817 5815 5813 5811 5809 5807 5805 5802 5799 5797 5794 5792 5789 5786 5783 5779 5774 5769 5764 5759
5791 5793 5795 5795 5797 5803 5804 5810 5811 5813 5816 5818 5823 5822 5814 5817 5818 5817 5815 5815 5815 5815 5815 5814 5812 5810 5808 5806 5804 5801 5800 5797 5794 5792 5789 5787 5784 5780 5776 5772 5768 5763 5757 5751
5785 5786 5787 5788 5795 5797 5799 5800 5805 5810 5811 5812 5815 5812 5808 5807 5814 5814 5812 5810 5809 5809 5808 5808 5806 5803 5802 5801 5799 5797 5794 5792 5789 5786 5783 5781 5778 5774 5771 5766 5761 5756 5749 5743
5779 5780 5783 5787 5787 5789 5793 5797 5801 5802 5806 5805 5809 5808 5805 5805 5806 5806 5807 5805 5805 5804 5802 5801 5799 5797 5795 5794 5793 5791 5789 5786 5784 5781 5778 5775 5772 5768 5763 5758 5753 5746 5741 5734
5771 5776 5778 5781 5782 5786 5789 5792 5796 5797 5797 5800 5803 5807 5801 5804 5803 5800 5798 5799 5800 5800 5796 5795 5794 5792 5791 5789 5787 5786 5784 5781 5778 5775 5772 5769 5766 5760 5755 5749 5743 5737 5731 5725
5766 5769 5773 5776 5777 5779 5783 5786 5790 5790 5791 5794 5797 5798 5796 5797 5795 5794 5794 5795 5795 5791 5792 5790 5790 5788 5786 5784 5782 5780 5778 5774 5772 5769 5766 5762 5757 5752 5747 5741 5735 5728 5722 5715
5761 5764 5767 5771 5773 5775 5778 5779 5782 5784 5786 5788 5793 5790 5794 5793 5788 5786 5789 5788 5788 5787 5785 5785 5782 5782 5781 5778 5776 5774 5771 5768 5765 5762 5758 5753 5748 5742 5737 5731 5725 5719 5712 5705
5755 5759 5762 5766 5769 5769 5772 5773 5777 5777 5780 5781 5782 5783 5786 5784 5782 5784 5784 5782 5782 5782 5780 5779 5777 5776 5774 5772 5770 5766 5764 5761 5758 5754 5749 5744 5738 5733 5727 5721 5715 5709 5702 5695
5750 5753 5757 5760 5762 5763 5765 5771 5772 5772 5773 5775 5776 5778 5776 5776 5777 5777 5777 5777 5777 5776 5775 5773 5771 5769 5768 5766 5763 5760 5757 5753 5749 5744 5739 5735 5729 5723 5717 5711 5705 5698 5691 5684
5744 5749 5751 5755 5755 5755 5762 5764 5764 5765 5766 5767 5768 5768 5769 5770 5771 5769 5770 5770 5770 5769 5768 5767 5764 5762 5760 5758 5755 5752 5748 5745 5740 5736 5731 5725 5719 5712 5707 5701 5694 5687 5680 5674
5739 5742 5745 5748 5749 5752 5754 5757 5758 5757 5760 5760 5762 5761 5762 5763 5762 5763 5764 5763 5763 5762 5760 5758 5756 5754 5751 5749 5746 5741 5739 5735 5731 5726 5720 5715 5708 5702 5696 5689 5683 5676 5669 5662
5734 5736 5739 5743 5744 5745 5747 5751 5751 5751 5752 5754 5756 5756 5757 5757 5756 5756 5758 5756 5755 5753 5751 5749 5747 5745 5742 5739 5736 5733 5729 5725 5721 5715 5709 5704 5697 5690 5683 5677 5671 5664 5657 5649
5727 5731 5732 5735 5737 5741 5740 5745 5745 5746 5749 5748 5748 5750 5750 5750 5750 5749 5747 5746 5746 5744 5742 5740 5738 5735 5732 5729 5725 5722 5719 5714 5710 5704 5698 5692 5685 5678 5672 5666 5659 5653 5646 5638
5720 5721 5725 5729 5730 5734 5735 5735 5739 5739 5739 5740 5741 5741 5742 5742 5741 5739 5739 5738 5738 5735 5732 5730 5728 5725 5722 5719 5714 5710 5707 5702 5697 5692 5686 5679 5672 5666 5660 5654 5648 5641 5633 5626
5709 5715 5720 5722 5725 5726 5728 5727 5730 5731 5732 5732 5733 5733 5732 5731 5731 5731 5730 5728 5725 5723 5721 5719 5717 5714 5711 5707 5703 5698 5693 5689 5684 5678 5673 5667 5660 5654 5648 5643 5636 5630 5622 5614
5703 5705 5709 5713 5716 5717 5719 5719 5720 5720 5722 5722 5721 5721 5722 5721 5721 5720 5719 5717 5714 5712 5709 5707 5704 5702 5699 5695 5691 5686 5679 5674 5670 5665 5659 5654 5648 5642 5636 5630 5624 5617 5609 5603
5692 5698 5702 5705 5707 5706 5709 5710 5711 5711 5713 5713 5713 5712 5711 5710 5708 5707 5705 5703 5702 5700 5697 5694 5690 5687 5684 5680 5678 5670 5663 5658 5654 5650 5644 5639 5635 5630 5624 5618 5611 5604 5598 5591
5683 5689 5692 5696 5696 5696 5697 5699 5700 5701 5700 5700 5702 5702 5701 5699 5698 5697 5694 5692 5690 5689 5685 5681 5677 5672 5667 5664 5657 5657 5651 5643 5638 5634 5631 5626 5621 5618 5612 5606 5600 5592 5586 5580